Regional Weather Roundup
Issued by NWS Huntsville, AL

Home | Current Version | Previous Version | Text Only | Print | Product List | Glossary On
Versions: 1 2 3 4 5 6 7 8 9 10 11 12 13 14 15 16 17 18 19 20 21 22 23 24 25 26 27 28 29 30 31 32 33 34 35 36 37 38 39 40 41 42 43 44 45 46 47 48 49 50
000
ASUS44 KHUN 301210
RWRHUN

WEATHER ROUNDUP FOR THE TENNESSEE VALLEY
NATIONAL WEATHER SERVICE HUNTSVILLE AL
700 AM CDT SAT AUG 30 2014

ALZ001>004-301300-
NORTHWEST ALABAMA

CITY           SKY/WX    TMP DP  RH WIND       PRES   REMARKS
COURTLAND HCN    N/A     73  32  21 CALM        N/A
RUSSELLVILLE     N/A     72 N/A N/A MISG        N/A
SHOALS AIRPORT CLOUDY    73  67  81 CALM      30.08R
6HR MIN TEMP:  69; 6HR MAX TEMP:  73; 6HR PCP: TRACE;

SHOALS TVA RES   N/A     72 N/A N/A MISG        N/A
$$

ALZ005>007-016-301300-
NORTH CENTRAL ALABAMA

CITY           SKY/WX    TMP DP  RH WIND       PRES   REMARKS
DECATUR AP     CLOUDY    73  66  78 SE3       30.09R
6HR MIN TEMP:  70; 6HR MAX TEMP:  73; 6HR PCP: TRACE;

HUNTSVILLE AP  CLOUDY    75  67  76 SE5       30.08R
6HR MIN TEMP:  74; 6HR MAX TEMP:  76;

HUN NWS/UAH      N/A     75  64  70 SE3         N/A
MERIDIANVILLE  CLOUDY    70  63  78 CALM      30.09S
VINEMONT AP    FAIR      74  65  72 SE7       30.12R
$$

ALZ008>010-301300-
NORTHEAST ALABAMA

CITY           SKY/WX    TMP DP  RH WIND       PRES   REMARKS
ALBERTVILLE    MOCLDY    73  68  83 SE5       30.11S
FORT PAYNE     MOCLDY    70  63  78 CALM      30.12R
SCOTTSBORO AP  PTCLDY    70  66  88 CALM      30.12R
SCOTTSBORO HCN   N/A     68 N/A N/A MISG        N/A
VALLEY HEAD      N/A     68 N/A N/A MISG        N/A
$$

TNZ076-096-097-301300-
SOUTHEASTERN MIDDLE TENNESSEE

CITY           SKY/WX    TMP DP  RH WIND       PRES   REMARKS
FAYETTEVILLE   CLEAR     72  63  73 CALM      30.10R
TULLAHOMA      CLEAR     70  64  83 CALM      30.12R
WINCHESTER     CLEAR     73  64  73 SE3       30.11S
$$

...SURROUNDING SITES...

CITY           SKY/WX    TMP DP  RH WIND       PRES   REMARKS
ATLANTA        MOCLDY    74  66  76 CALM      30.15R
ANNISTON       MOCLDY    74  68  81 NE5       30.12S
BIRMINGHAM     CLOUDY    78  71  79 SE3       30.12R
CHATTANOOGA    MOCLDY    71  66  84 CALM      30.12S
CORINTH        DRIZZLE   72  70  94 E6        30.06S
DALTON         PTCLDY    68  66  94 CALM      30.14R
GADSDEN        MOCLDY    72  64  78 CALM      30.11S
GOLDEN TRNGL   MOCLDY    75  70  83 CALM      30.06R
HALEYVILLE     FAIR      72  67  84 CALM      30.11R
JACKSON TN     CLOUDY    75  68  78 S10       30.04R
LEWISBURG      FAIR      68  65  90 CALM      30.07S
MEMPHIS        CLOUDY    77  71  82 SW6       30.02S
NASHVILLE      MOCLDY    73  65  75 CALM      30.07R
ROME           PTCLDY    69  65  86 CALM      30.13R
SAVANNAH       MOCLDY    72  70  94 S3        30.08R
TUPELO         CLOUDY    75  69  81 NE5       30.05R
TUSCALOOSA     CLOUDY    76  71  85 CALM      30.07R
$$

...GULF COAST WEATHER...

CITY           SKY/WX    TMP DP  RH WIND       PRES   REMARKS
GULFPORT       CLEAR     82  74  76 SE5       30.02R
PASCAGOULA     MOCLDY    75  75 100 CALM      30.04R
MOBILE         CLOUDY    77  77 100 SE5       30.06S
GULF SHORES    PTSUNNY   77  75  96 SE5       30.05R
PENSACOLA      PTCLDY    81  77  88 S8        30.05S
DESTIN         PTCLDY    84  76  76 VRB3      30.07R HX  93
PANAMA CITY    PTCLDY    79  78  99 E2        30.10R
APPALACHICOLA  CLEAR     78  77  96 CALM      30.09R
$$




USA.gov is the U.S. government's official web portal to all federal, state and local government web resources and services.